This is the latest recevied weather packets stored in our database for station/object IU1OLT-6. If no packets are shown the sender has not sent any weather packets the latest 10 day(s).
| Time | Temp. | Humidity | Pressure | Rain* | Wind** | Luminosity | Snow |
|---|---|---|---|---|---|---|---|
| 1788512432 | 19.44° C | 49% | 1018.5 hPa | 0 mm | - | - | - |
| 1788511520 | 20.56° C | 40% | 1018.3 hPa | 0 mm | - | - | - |
| 1788510560 | 19.44° C | 33% | 1018.2 hPa | 0 mm | - | - | - |
| 1788509600 | 19.44° C | 42% | 1018.2 hPa | 0 mm | - | - | - |
| 1788508640 | 20° C | 40% | 1018.1 hPa | 0 mm | - | - | - |
| 1788507698 | 19.44° C | 31% | 1017.9 hPa | 0 mm | - | - | - |
| 1788506776 | 19.44° C | 35% | 1017.7 hPa | 0 mm | - | - | - |
| 1788505856 | 19.44° C | 31% | 1017.7 hPa | 0 mm | - | - | - |
| 1788504897 | 19.44° C | 31% | 1017.6 hPa | 0 mm | - | - | - |
| 1788503937 | 19.44° C | 32% | 1017.7 hPa | 0 mm | - | - | - |
| 1788502977 | 19.44° C | 30% | 1017.6 hPa | 0 mm | - | - | - |
| 1788502017 | 19.44° C | 31% | 1017.5 hPa | 0 mm | - | - | - |
| 1788501057 | 20° C | 30% | 1017.6 hPa | 0 mm | - | - | - |
| 1788500144 | 20° C | 31% | 1017.7 hPa | 0 mm | - | - | - |
| 1788499233 | 19.44° C | 31% | 1017.7 hPa | 0 mm | - | - | - |
| 1788498273 | 19.44° C | 32% | 1017.7 hPa | 0 mm | - | - | - |
| 1788497313 | 18.89° C | 32% | 1017.7 hPa | 0 mm | - | - | - |
| 1788496353 | 18.33° C | 32% | 1017.6 hPa | 0 mm | - | - | - |
| 1788495440 | 18.33° C | 33% | 1017.6 hPa | 0 mm | - | - | - |
| 1788494529 | 18.33° C | 33% | 1017.5 hPa | 0 mm | - | - | - |
| 1788493473 | 18.33° C | 33% | 1017.6 hPa | 0 mm | - | - | - |
| 1788492513 | 17.78° C | 33% | 1017.6 hPa | 0 mm | - | - | - |
| 1788491553 | 17.78° C | 39% | 1017.5 hPa | 0 mm | - | - | - |
| 1788490640 | 18.33° C | 32% | 1017.4 hPa | 0 mm | - | - | - |
| 1788489729 | 18.89° C | 32% | 1017.5 hPa | 0 mm | - | - | - |
* Rain latest hour (hover to see other rain measurements)
** Current wind speed in m/s (hover to see current wind gust speed)